owner,sensor,date,latitude,longitude,air_temperature,qcFlag 
COMPS,ioos:station:USF.COMPS:ARP:1,2014-04-01T00:00:00Z,28.4330,-82.6670,17.66,1111122 
COMPS,ioos:station:USF.COMPS:ARP:1,2014-04-01T00:06:00Z,28.4330,-82.6670,17.2,1111122 
COMPS,ioos:station:USF.COMPS:ARP:1,2014-04-01T00:12:00Z,28.4330,-82.6670,16.81,1111122 
COMPS,ioos:station:USF.COMPS:ARP:1,2014-04-01T00:18:00Z,28.4330,-82.6670,16.31,1111122 
COMPS,ioos:station:USF.COMPS:ARP:1,2014-04-01T00:24:00Z,28.4330,-82.6670,16.1,1111122 
COMPS,ioos:station:USF.COMPS:ARP:1,2014-04-01T00:30:00Z,28.4330,-82.6670,15.93,1111122 
COMPS,ioos:station:USF.COMPS:ARP:1,2014-04-01T00:36:00Z,28.4330,-82.6670,15.66,1111122 
COMPS,ioos:station:USF.COMPS:ARP:1,2014-04-01T00:42:00Z,28.4330,-82.6670,15.38,1111122 
COMPS,ioos:station:USF.COMPS:ARP:1,2014-04-01T00:48:00Z,28.4330,-82.6670,15.14,1111122 
COMPS,ioos:station:USF.COMPS:ARP:1,2014-04-01T00:54:00Z,28.4330,-82.6670,15.09,1111122 
COMPS,ioos:station:USF.COMPS:ARP:1,2014-04-01T01:00:00Z,28.4330,-82.6670,14.85,1111122 
COMPS,ioos:station:USF.COMPS:ARP:1,2014-04-01T01:06:00Z,28.4330,-82.6670,14.72,1111122 
COMPS,ioos:station:USF.COMPS:ARP:1,2014-04-01T01:12:00Z,28.4330,-82.6670,14.51,1111122 
COMPS,ioos:station:USF.COMPS:ARP:1,2014-04-01T01:18:00Z,28.4330,-82.6670,14.48,1111122 
COMPS,ioos:station:USF.COMPS:ARP:1,2014-04-01T01:24:00Z,28.4330,-82.6670,14.39,1111122 
COMPS,ioos:station:USF.COMPS:ARP:1,2014-04-01T01:30:00Z,28.4330,-82.6670,14.33,1111122 
COMPS,ioos:station:USF.COMPS:ARP:1,2014-04-01T01:36:00Z,28.4330,-82.6670,14.24,1111122 
COMPS,ioos:station:USF.COMPS:ARP:1,2014-04-01T01:42:00Z,28.4330,-82.6670,14.09,1111122 
COMPS,ioos:station:USF.COMPS:ARP:1,2014-04-01T01:48:00Z,28.4330,-82.6670,14.0,1111122 
COMPS,ioos:station:USF.COMPS:ARP:1,2014-04-01T01:54:00Z,28.4330,-82.6670,13.82,1111122 
COMPS,ioos:station:USF.COMPS:ARP:1,2014-04-01T02:00:00Z,28.4330,-82.6670,13.66,1111122 
COMPS,ioos:station:USF.COMPS:ARP:1,2014-04-01T02:06:00Z,28.4330,-82.6670,13.65,1111122 
COMPS,ioos:station:USF.COMPS:ARP:1,2014-04-01T02:12:00Z,28.4330,-82.6670,13.49,1111122 
COMPS,ioos:station:USF.COMPS:ARP:1,2014-04-01T02:18:00Z,28.4330,-82.6670,13.48,1111122 
COMPS,ioos:station:USF.COMPS:ARP:1,2014-04-01T02:24:00Z,28.4330,-82.6670,13.4,1111122 
COMPS,ioos:station:USF.COMPS:ARP:1,2014-04-01T02:30:00Z,28.4330,-82.6670,13.27,1111122 
COMPS,ioos:station:USF.COMPS:ARP:1,2014-04-01T02:36:00Z,28.4330,-82.6670,13.14,1111122 
COMPS,ioos:station:USF.COMPS:ARP:1,2014-04-01T02:42:00Z,28.4330,-82.6670,13.07,1111122 
COMPS,ioos:station:USF.COMPS:ARP:1,2014-04-01T02:48:00Z,28.4330,-82.6670,13.09,1111122 
COMPS,ioos:station:USF.COMPS:ARP:1,2014-04-01T02:54:00Z,28.4330,-82.6670,13.03,1111122 
COMPS,ioos:station:USF.COMPS:ARP:1,2014-04-01T03:00:00Z,28.4330,-82.6670,12.87,1111122 
COMPS,ioos:station:USF.COMPS:ARP:1,2014-04-01T03:06:00Z,28.4330,-82.6670,12.75,1111122 
COMPS,ioos:station:USF.COMPS:ARP:1,2014-04-01T03:12:00Z,28.4330,-82.6670,12.7,1111122 
COMPS,ioos:station:USF.COMPS:ARP:1,2014-04-01T03:18:00Z,28.4330,-82.6670,12.61,1111122 
COMPS,ioos:station:USF.COMPS:ARP:1,2014-04-01T03:24:00Z,28.4330,-82.6670,12.52,1111122 
COMPS,ioos:station:USF.COMPS:ARP:1,2014-04-01T03:30:00Z,28.4330,-82.6670,12.55,1111122 
COMPS,ioos:station:USF.COMPS:ARP:1,2014-04-01T03:36:00Z,28.4330,-82.6670,12.32,1111122 
COMPS,ioos:station:USF.COMPS:ARP:1,2014-04-01T03:42:00Z,28.4330,-82.6670,12.35,1111122 
COMPS,ioos:station:USF.COMPS:ARP:1,2014-04-01T03:48:00Z,28.4330,-82.6670,12.38,1111122 
COMPS,ioos:station:USF.COMPS:ARP:1,2014-04-01T03:54:00Z,28.4330,-82.6670,12.37,1111122 
COMPS,ioos:station:USF.COMPS:ARP:1,2014-04-01T04:00:00Z,28.4330,-82.6670,12.35,1111122 
COMPS,ioos:station:USF.COMPS:ARP:1,2014-04-01T04:06:00Z,28.4330,-82.6670,12.37,1111122 
COMPS,ioos:station:USF.COMPS:ARP:1,2014-04-01T04:12:00Z,28.4330,-82.6670,12.31,1111122 
COMPS,ioos:station:USF.COMPS:ARP:1,2014-04-01T04:18:00Z,28.4330,-82.6670,12.25,1111122 
COMPS,ioos:station:USF.COMPS:ARP:1,2014-04-01T04:24:00Z,28.4330,-82.6670,12.24,1111122 
COMPS,ioos:station:USF.COMPS:ARP:1,2014-04-01T04:30:00Z,28.4330,-82.6670,12.21,1111122 
COMPS,ioos:station:USF.COMPS:ARP:1,2014-04-01T04:36:00Z,28.4330,-82.6670,12.27,1111122 
COMPS,ioos:station:USF.COMPS:ARP:1,2014-04-01T04:42:00Z,28.4330,-82.6670,12.23,1111122 
COMPS,ioos:station:USF.COMPS:ARP:1,2014-04-01T04:48:00Z,28.4330,-82.6670,12.39,1111122 
COMPS,ioos:station:USF.COMPS:ARP:1,2014-04-01T04:54:00Z,28.4330,-82.6670,12.39,1111122 
COMPS,ioos:station:USF.COMPS:ARP:1,2014-04-01T05:00:00Z,28.4330,-82.6670,12.37,1111122 
COMPS,ioos:station:USF.COMPS:ARP:1,2014-04-01T05:06:00Z,28.4330,-82.6670,12.34,1111122 
COMPS,ioos:station:USF.COMPS:ARP:1,2014-04-01T05:12:00Z,28.4330,-82.6670,12.39,1111122 
COMPS,ioos:station:USF.COMPS:ARP:1,2014-04-01T05:18:00Z,28.4330,-82.6670,12.33,1111122 
COMPS,ioos:station:USF.COMPS:ARP:1,2014-04-01T05:24:00Z,28.4330,-82.6670,12.35,1111122 
COMPS,ioos:station:USF.COMPS:ARP:1,2014-04-01T05:30:00Z,28.4330,-82.6670,12.34,1111122 
COMPS,ioos:station:USF.COMPS:ARP:1,2014-04-01T05:36:00Z,28.4330,-82.6670,12.39,1111122 
COMPS,ioos:station:USF.COMPS:ARP:1,2014-04-01T05:42:00Z,28.4330,-82.6670,12.35,1111122 
COMPS,ioos:station:USF.COMPS:ARP:1,2014-04-01T05:48:00Z,28.4330,-82.6670,12.36,1111122 
COMPS,ioos:station:USF.COMPS:ARP:1,2014-04-01T05:54:00Z,28.4330,-82.6670,12.26,1111122 
COMPS,ioos:station:USF.COMPS:ARP:1,2014-04-01T06:00:00Z,28.4330,-82.6670,12.21,1111122 
COMPS,ioos:station:USF.COMPS:ARP:1,2014-04-01T06:06:00Z,28.4330,-82.6670,12.09,1111122 
COMPS,ioos:station:USF.COMPS:ARP:1,2014-04-01T06:12:00Z,28.4330,-82.6670,12.05,1111122 
COMPS,ioos:station:USF.COMPS:ARP:1,2014-04-01T06:18:00Z,28.4330,-82.6670,11.93,1111122 
COMPS,ioos:station:USF.COMPS:ARP:1,2014-04-01T06:24:00Z,28.4330,-82.6670,11.86,1111122 
COMPS,ioos:station:USF.COMPS:ARP:1,2014-04-01T06:30:00Z,28.4330,-82.6670,11.69,1111122 
COMPS,ioos:station:USF.COMPS:ARP:1,2014-04-01T06:36:00Z,28.4330,-82.6670,11.65,1111122 
COMPS,ioos:station:USF.COMPS:ARP:1,2014-04-01T06:42:00Z,28.4330,-82.6670,11.54,1111122 
COMPS,ioos:station:USF.COMPS:ARP:1,2014-04-01T06:48:00Z,28.4330,-82.6670,11.68,1111122 
COMPS,ioos:station:USF.COMPS:ARP:1,2014-04-01T06:54:00Z,28.4330,-82.6670,11.75,1111122 
COMPS,ioos:station:USF.COMPS:ARP:1,2014-04-01T07:00:00Z,28.4330,-82.6670,11.52,1111122 
COMPS,ioos:station:USF.COMPS:ARP:1,2014-04-01T07:06:00Z,28.4330,-82.6670,11.54,1111122 
COMPS,ioos:station:USF.COMPS:ARP:1,2014-04-01T07:12:00Z,28.4330,-82.6670,11.38,1111122 
COMPS,ioos:station:USF.COMPS:ARP:1,2014-04-01T07:18:00Z,28.4330,-82.6670,11.21,1111122 
COMPS,ioos:station:USF.COMPS:ARP:1,2014-04-01T07:24:00Z,28.4330,-82.6670,11.4,1111122 
COMPS,ioos:station:USF.COMPS:ARP:1,2014-04-01T07:30:00Z,28.4330,-82.6670,11.22,1111122 
COMPS,ioos:station:USF.COMPS:ARP:1,2014-04-01T07:36:00Z,28.4330,-82.6670,11.02,1111122 
COMPS,ioos:station:USF.COMPS:ARP:1,2014-04-01T07:42:00Z,28.4330,-82.6670,10.97,1111122 
COMPS,ioos:station:USF.COMPS:ARP:1,2014-04-01T07:48:00Z,28.4330,-82.6670,11.33,1111122 
COMPS,ioos:station:USF.COMPS:ARP:1,2014-04-01T07:54:00Z,28.4330,-82.6670,11.48,1111122 
COMPS,ioos:station:USF.COMPS:ARP:1,2014-04-01T08:00:00Z,28.4330,-82.6670,11.39,1111122 
COMPS,ioos:station:USF.COMPS:ARP:1,2014-04-01T08:06:00Z,28.4330,-82.6670,11.4,1111122 
COMPS,ioos:station:USF.COMPS:ARP:1,2014-04-01T08:12:00Z,28.4330,-82.6670,11.29,1111122 
COMPS,ioos:station:USF.COMPS:ARP:1,2014-04-01T08:18:00Z,28.4330,-82.6670,11.13,1111122 
COMPS,ioos:station:USF.COMPS:ARP:1,2014-04-01T08:24:00Z,28.4330,-82.6670,11.03,1111122 
COMPS,ioos:station:USF.COMPS:ARP:1,2014-04-01T08:30:00Z,28.4330,-82.6670,10.94,1111122 
COMPS,ioos:station:USF.COMPS:ARP:1,2014-04-01T08:36:00Z,28.4330,-82.6670,10.86,1111122 
COMPS,ioos:station:USF.COMPS:ARP:1,2014-04-01T08:42:00Z,28.4330,-82.6670,10.83,1111122 
COMPS,ioos:station:USF.COMPS:ARP:1,2014-04-01T08:48:00Z,28.4330,-82.6670,10.82,1111122 
COMPS,ioos:station:USF.COMPS:ARP:1,2014-04-01T08:54:00Z,28.4330,-82.6670,10.84,1111122 
COMPS,ioos:station:USF.COMPS:ARP:1,2014-04-01T09:00:00Z,28.4330,-82.6670,10.97,1111122 
COMPS,ioos:station:USF.COMPS:ARP:1,2014-04-01T09:06:00Z,28.4330,-82.6670,11.02,1111122 
COMPS,ioos:station:USF.COMPS:ARP:1,2014-04-01T09:12:00Z,28.4330,-82.6670,11.19,1111122 
COMPS,ioos:station:USF.COMPS:ARP:1,2014-04-01T09:18:00Z,28.4330,-82.6670,11.25,1111122 
COMPS,ioos:station:USF.COMPS:ARP:1,2014-04-01T09:24:00Z,28.4330,-82.6670,11.25,1111122 
COMPS,ioos:station:USF.COMPS:ARP:1,2014-04-01T09:30:00Z,28.4330,-82.6670,11.28,1111122 
COMPS,ioos:station:USF.COMPS:ARP:1,2014-04-01T09:36:00Z,28.4330,-82.6670,11.34,1111122 
COMPS,ioos:station:USF.COMPS:ARP:1,2014-04-01T09:42:00Z,28.4330,-82.6670,11.26,1111122 
COMPS,ioos:station:USF.COMPS:ARP:1,2014-04-01T09:48:00Z,28.4330,-82.6670,11.35,1111122 
COMPS,ioos:station:USF.COMPS:ARP:1,2014-04-01T09:54:00Z,28.4330,-82.6670,11.37,1111122 
COMPS,ioos:station:USF.COMPS:ARP:1,2014-04-01T10:00:00Z,28.4330,-82.6670,11.35,1111122 
COMPS,ioos:station:USF.COMPS:ARP:1,2014-04-01T10:06:00Z,28.4330,-82.6670,11.41,1111122 
COMPS,ioos:station:USF.COMPS:ARP:1,2014-04-01T10:12:00Z,28.4330,-82.6670,11.45,1111122 
COMPS,ioos:station:USF.COMPS:ARP:1,2014-04-01T10:18:00Z,28.4330,-82.6670,11.43,1111122 
COMPS,ioos:station:USF.COMPS:ARP:1,2014-04-01T10:24:00Z,28.4330,-82.6670,11.39,1111122 
COMPS,ioos:station:USF.COMPS:ARP:1,2014-04-01T10:30:00Z,28.4330,-82.6670,11.48,1111122 
COMPS,ioos:station:USF.COMPS:ARP:1,2014-04-01T10:36:00Z,28.4330,-82.6670,11.54,1111122 
COMPS,ioos:station:USF.COMPS:ARP:1,2014-04-01T10:42:00Z,28.4330,-82.6670,11.51,1111122 
COMPS,ioos:station:USF.COMPS:ARP:1,2014-04-01T10:48:00Z,28.4330,-82.6670,11.37,1111122 
COMPS,ioos:station:USF.COMPS:ARP:1,2014-04-01T10:54:00Z,28.4330,-82.6670,11.38,1111122 
COMPS,ioos:station:USF.COMPS:ARP:1,2014-04-01T11:00:00Z,28.4330,-82.6670,11.42,1111122 
COMPS,ioos:station:USF.COMPS:ARP:1,2014-04-01T11:06:00Z,28.4330,-82.6670,11.49,1111122 
COMPS,ioos:station:USF.COMPS:ARP:1,2014-04-01T11:12:00Z,28.4330,-82.6670,11.44,1111122 
COMPS,ioos:station:USF.COMPS:ARP:1,2014-04-01T11:18:00Z,28.4330,-82.6670,11.31,1111122 
COMPS,ioos:station:USF.COMPS:ARP:1,2014-04-01T11:24:00Z,28.4330,-82.6670,11.22,1111122 
COMPS,ioos:station:USF.COMPS:ARP:1,2014-04-01T11:30:00Z,28.4330,-82.6670,11.13,1111122 
COMPS,ioos:station:USF.COMPS:ARP:1,2014-04-01T11:36:00Z,28.4330,-82.6670,11.21,1111122 
COMPS,ioos:station:USF.COMPS:ARP:1,2014-04-01T11:42:00Z,28.4330,-82.6670,11.3,1111122 
COMPS,ioos:station:USF.COMPS:ARP:1,2014-04-01T11:48:00Z,28.4330,-82.6670,11.49,1111122 
COMPS,ioos:station:USF.COMPS:ARP:1,2014-04-01T11:54:00Z,28.4330,-82.6670,11.72,1111122 
COMPS,ioos:station:USF.COMPS:ARP:1,2014-04-01T12:00:00Z,28.4330,-82.6670,12.1,1111122 
COMPS,ioos:station:USF.COMPS:ARP:1,2014-04-01T12:06:00Z,28.4330,-82.6670,12.35,1111122 
COMPS,ioos:station:USF.COMPS:ARP:1,2014-04-01T12:12:00Z,28.4330,-82.6670,12.56,1111122 
COMPS,ioos:station:USF.COMPS:ARP:1,2014-04-01T12:18:00Z,28.4330,-82.6670,12.83,1111122 
COMPS,ioos:station:USF.COMPS:ARP:1,2014-04-01T12:24:00Z,28.4330,-82.6670,13.19,1111122 
COMPS,ioos:station:USF.COMPS:ARP:1,2014-04-01T12:30:00Z,28.4330,-82.6670,13.38,1111122 
COMPS,ioos:station:USF.COMPS:ARP:1,2014-04-01T12:36:00Z,28.4330,-82.6670,13.72,1111122 
COMPS,ioos:station:USF.COMPS:ARP:1,2014-04-01T12:42:00Z,28.4330,-82.6670,14.15,1111122 
COMPS,ioos:station:USF.COMPS:ARP:1,2014-04-01T12:48:00Z,28.4330,-82.6670,14.61,1111122 
COMPS,ioos:station:USF.COMPS:ARP:1,2014-04-01T12:54:00Z,28.4330,-82.6670,14.99,1111122 
COMPS,ioos:station:USF.COMPS:ARP:1,2014-04-01T13:00:00Z,28.4330,-82.6670,15.32,1111122 
COMPS,ioos:station:USF.COMPS:ARP:1,2014-04-01T13:06:00Z,28.4330,-82.6670,15.68,1111122 
COMPS,ioos:station:USF.COMPS:ARP:1,2014-04-01T13:12:00Z,28.4330,-82.6670,16.13,1111122 
COMPS,ioos:station:USF.COMPS:ARP:1,2014-04-01T13:18:00Z,28.4330,-82.6670,16.46,1111122 
COMPS,ioos:station:USF.COMPS:ARP:1,2014-04-01T13:24:00Z,28.4330,-82.6670,16.79,1111122 
COMPS,ioos:station:USF.COMPS:ARP:1,2014-04-01T13:30:00Z,28.4330,-82.6670,17.24,1111122 
COMPS,ioos:station:USF.COMPS:ARP:1,2014-04-01T13:36:00Z,28.4330,-82.6670,17.75,1111122 
COMPS,ioos:station:USF.COMPS:ARP:1,2014-04-01T13:42:00Z,28.4330,-82.6670,18.19,1111122 
COMPS,ioos:station:USF.COMPS:ARP:1,2014-04-01T13:48:00Z,28.4330,-82.6670,18.42,1111122 
COMPS,ioos:station:USF.COMPS:ARP:1,2014-04-01T13:54:00Z,28.4330,-82.6670,18.7,1111122 
COMPS,ioos:station:USF.COMPS:ARP:1,2014-04-01T14:00:00Z,28.4330,-82.6670,19.16,1111122 
COMPS,ioos:station:USF.COMPS:ARP:1,2014-04-01T14:06:00Z,28.4330,-82.6670,19.53,1111122 
COMPS,ioos:station:USF.COMPS:ARP:1,2014-04-01T14:12:00Z,28.4330,-82.6670,20.01,1111122 
COMPS,ioos:station:USF.COMPS:ARP:1,2014-04-01T14:18:00Z,28.4330,-82.6670,20.24,1111122 
COMPS,ioos:station:USF.COMPS:ARP:1,2014-04-01T14:24:00Z,28.4330,-82.6670,20.56,1111122 
COMPS,ioos:station:USF.COMPS:ARP:1,2014-04-01T14:30:00Z,28.4330,-82.6670,20.77,1111122 
COMPS,ioos:station:USF.COMPS:ARP:1,2014-04-01T14:36:00Z,28.4330,-82.6670,21.09,1111122 
COMPS,ioos:station:USF.COMPS:ARP:1,2014-04-01T14:42:00Z,28.4330,-82.6670,21.41,1111122 
COMPS,ioos:station:USF.COMPS:ARP:1,2014-04-01T14:48:00Z,28.4330,-82.6670,21.71,1111122 
COMPS,ioos:station:USF.COMPS:ARP:1,2014-04-01T14:54:00Z,28.4330,-82.6670,22.07,1111122 
COMPS,ioos:station:USF.COMPS:ARP:1,2014-04-01T15:00:00Z,28.4330,-82.6670,22.2,1111122 
COMPS,ioos:station:USF.COMPS:ARP:1,2014-04-01T15:06:00Z,28.4330,-82.6670,22.11,1111122 
COMPS,ioos:station:USF.COMPS:ARP:1,2014-04-01T15:12:00Z,28.4330,-82.6670,22.16,1111122 
COMPS,ioos:station:USF.COMPS:ARP:1,2014-04-01T15:18:00Z,28.4330,-82.6670,22.35,1111122 
COMPS,ioos:station:USF.COMPS:ARP:1,2014-04-01T15:24:00Z,28.4330,-82.6670,23.09,1111122 
COMPS,ioos:station:USF.COMPS:ARP:1,2014-04-01T15:30:00Z,28.4330,-82.6670,22.92,1111122 
COMPS,ioos:station:USF.COMPS:ARP:1,2014-04-01T15:36:00Z,28.4330,-82.6670,22.66,1111122 
COMPS,ioos:station:USF.COMPS:ARP:1,2014-04-01T15:42:00Z,28.4330,-82.6670,22.87,1111122 
COMPS,ioos:station:USF.COMPS:ARP:1,2014-04-01T15:48:00Z,28.4330,-82.6670,22.48,1111122 
COMPS,ioos:station:USF.COMPS:ARP:1,2014-04-01T15:54:00Z,28.4330,-82.6670,21.62,1111122 
COMPS,ioos:station:USF.COMPS:ARP:1,2014-04-01T16:00:00Z,28.4330,-82.6670,21.35,1111122 
COMPS,ioos:station:USF.COMPS:ARP:1,2014-04-01T16:06:00Z,28.4330,-82.6670,21.44,1111122 
COMPS,ioos:station:USF.COMPS:ARP:1,2014-04-01T16:12:00Z,28.4330,-82.6670,21.48,1111122 
COMPS,ioos:station:USF.COMPS:ARP:1,2014-04-01T16:18:00Z,28.4330,-82.6670,21.33,1111122 
COMPS,ioos:station:USF.COMPS:ARP:1,2014-04-01T16:24:00Z,28.4330,-82.6670,21.16,1111122 
COMPS,ioos:station:USF.COMPS:ARP:1,2014-04-01T16:30:00Z,28.4330,-82.6670,21.02,1111122 
COMPS,ioos:station:USF.COMPS:ARP:1,2014-04-01T16:36:00Z,28.4330,-82.6670,20.99,1111122 
COMPS,ioos:station:USF.COMPS:ARP:1,2014-04-01T16:42:00Z,28.4330,-82.6670,20.73,1111122 
COMPS,ioos:station:USF.COMPS:ARP:1,2014-04-01T16:48:00Z,28.4330,-82.6670,20.22,1111122 
COMPS,ioos:station:USF.COMPS:ARP:1,2014-04-01T16:54:00Z,28.4330,-82.6670,20.15,1111122 
COMPS,ioos:station:USF.COMPS:ARP:1,2014-04-01T17:00:00Z,28.4330,-82.6670,19.92,1111122 
COMPS,ioos:station:USF.COMPS:ARP:1,2014-04-01T17:06:00Z,28.4330,-82.6670,19.8,1111122 
COMPS,ioos:station:USF.COMPS:ARP:1,2014-04-01T17:12:00Z,28.4330,-82.6670,19.95,1111122 
COMPS,ioos:station:USF.COMPS:ARP:1,2014-04-01T17:18:00Z,28.4330,-82.6670,20.3,1111122 
COMPS,ioos:station:USF.COMPS:ARP:1,2014-04-01T17:24:00Z,28.4330,-82.6670,20.22,1111122 
COMPS,ioos:station:USF.COMPS:ARP:1,2014-04-01T17:30:00Z,28.4330,-82.6670,20.23,1111122 
COMPS,ioos:station:USF.COMPS:ARP:1,2014-04-01T17:36:00Z,28.4330,-82.6670,20.47,1111122 
COMPS,ioos:station:USF.COMPS:ARP:1,2014-04-01T17:42:00Z,28.4330,-82.6670,20.59,1111122 
COMPS,ioos:station:USF.COMPS:ARP:1,2014-04-01T17:48:00Z,28.4330,-82.6670,20.58,1111122 
COMPS,ioos:station:USF.COMPS:ARP:1,2014-04-01T17:54:00Z,28.4330,-82.6670,20.73,1111122 
COMPS,ioos:station:USF.COMPS:ARP:1,2014-04-01T18:00:00Z,28.4330,-82.6670,20.49,1111122 
COMPS,ioos:station:USF.COMPS:ARP:1,2014-04-01T18:06:00Z,28.4330,-82.6670,20.9,1111122 
COMPS,ioos:station:USF.COMPS:ARP:1,2014-04-01T18:12:00Z,28.4330,-82.6670,20.82,1111122 
COMPS,ioos:station:USF.COMPS:ARP:1,2014-04-01T18:18:00Z,28.4330,-82.6670,20.75,1111122 
COMPS,ioos:station:USF.COMPS:ARP:1,2014-04-01T18:24:00Z,28.4330,-82.6670,20.64,1111122 
COMPS,ioos:station:USF.COMPS:ARP:1,2014-04-01T18:30:00Z,28.4330,-82.6670,20.6,1111122 
COMPS,ioos:station:USF.COMPS:ARP:1,2014-04-01T18:36:00Z,28.4330,-82.6670,20.61,1111122 
COMPS,ioos:station:USF.COMPS:ARP:1,2014-04-01T18:42:00Z,28.4330,-82.6670,20.82,1111122 
COMPS,ioos:station:USF.COMPS:ARP:1,2014-04-01T18:48:00Z,28.4330,-82.6670,21.05,1111122 
COMPS,ioos:station:USF.COMPS:ARP:1,2014-04-01T18:54:00Z,28.4330,-82.6670,20.7,1111122 
COMPS,ioos:station:USF.COMPS:ARP:1,2014-04-01T19:00:00Z,28.4330,-82.6670,20.52,1111122 
COMPS,ioos:station:USF.COMPS:ARP:1,2014-04-01T19:06:00Z,28.4330,-82.6670,20.65,1111122 
COMPS,ioos:station:USF.COMPS:ARP:1,2014-04-01T19:12:00Z,28.4330,-82.6670,20.64,1111122 
COMPS,ioos:station:USF.COMPS:ARP:1,2014-04-01T19:18:00Z,28.4330,-82.6670,20.61,1111122 
COMPS,ioos:station:USF.COMPS:ARP:1,2014-04-01T19:24:00Z,28.4330,-82.6670,20.64,1111122 
COMPS,ioos:station:USF.COMPS:ARP:1,2014-04-01T19:30:00Z,28.4330,-82.6670,20.72,1111122 
COMPS,ioos:station:USF.COMPS:ARP:1,2014-04-01T19:36:00Z,28.4330,-82.6670,20.71,1111122 
COMPS,ioos:station:USF.COMPS:ARP:1,2014-04-01T19:42:00Z,28.4330,-82.6670,20.96,1111122 
COMPS,ioos:station:USF.COMPS:ARP:1,2014-04-01T19:48:00Z,28.4330,-82.6670,21.02,1111122 
COMPS,ioos:station:USF.COMPS:ARP:1,2014-04-01T19:54:00Z,28.4330,-82.6670,20.93,1111122 
COMPS,ioos:station:USF.COMPS:ARP:1,2014-04-01T20:00:00Z,28.4330,-82.6670,20.85,1111122 
COMPS,ioos:station:USF.COMPS:ARP:1,2014-04-01T20:06:00Z,28.4330,-82.6670,20.94,1111122 
COMPS,ioos:station:USF.COMPS:ARP:1,2014-04-01T20:12:00Z,28.4330,-82.6670,20.83,1111122 
COMPS,ioos:station:USF.COMPS:ARP:1,2014-04-01T20:18:00Z,28.4330,-82.6670,20.81,1111122 
COMPS,ioos:station:USF.COMPS:ARP:1,2014-04-01T20:24:00Z,28.4330,-82.6670,20.81,1111122 
COMPS,ioos:station:USF.COMPS:ARP:1,2014-04-01T20:30:00Z,28.4330,-82.6670,20.85,1111122 
COMPS,ioos:station:USF.COMPS:ARP:1,2014-04-01T20:36:00Z,28.4330,-82.6670,20.86,1111122 
COMPS,ioos:station:USF.COMPS:ARP:1,2014-04-01T20:42:00Z,28.4330,-82.6670,20.92,1111122 
COMPS,ioos:station:USF.COMPS:ARP:1,2014-04-01T20:48:00Z,28.4330,-82.6670,20.92,1111122 
COMPS,ioos:station:USF.COMPS:ARP:1,2014-04-01T20:54:00Z,28.4330,-82.6670,21.01,1111122 
COMPS,ioos:station:USF.COMPS:ARP:1,2014-04-01T21:00:00Z,28.4330,-82.6670,20.89,1111122 
COMPS,ioos:station:USF.COMPS:ARP:1,2014-04-01T21:06:00Z,28.4330,-82.6670,20.88,1111122 
COMPS,ioos:station:USF.COMPS:ARP:1,2014-04-01T21:12:00Z,28.4330,-82.6670,20.91,1111122 
COMPS,ioos:station:USF.COMPS:ARP:1,2014-04-01T21:18:00Z,28.4330,-82.6670,20.95,1111122 
COMPS,ioos:station:USF.COMPS:ARP:1,2014-04-01T21:24:00Z,28.4330,-82.6670,21.07,1111122 
COMPS,ioos:station:USF.COMPS:ARP:1,2014-04-01T21:30:00Z,28.4330,-82.6670,21.05,1111122 
COMPS,ioos:station:USF.COMPS:ARP:1,2014-04-01T21:36:00Z,28.4330,-82.6670,20.93,1111122 
COMPS,ioos:station:USF.COMPS:ARP:1,2014-04-01T21:42:00Z,28.4330,-82.6670,20.98,1111122 
COMPS,ioos:station:USF.COMPS:ARP:1,2014-04-01T21:48:00Z,28.4330,-82.6670,20.98,1111122 
COMPS,ioos:station:USF.COMPS:ARP:1,2014-04-01T21:54:00Z,28.4330,-82.6670,21.07,1111122 
COMPS,ioos:station:USF.COMPS:ARP:1,2014-04-01T22:00:00Z,28.4330,-82.6670,21.08,1111122 
COMPS,ioos:station:USF.COMPS:ARP:1,2014-04-01T22:06:00Z,28.4330,-82.6670,21.01,1111122 
COMPS,ioos:station:USF.COMPS:ARP:1,2014-04-01T22:12:00Z,28.4330,-82.6670,21.08,1111122 
COMPS,ioos:station:USF.COMPS:ARP:1,2014-04-01T22:18:00Z,28.4330,-82.6670,21.14,1111122 
COMPS,ioos:station:USF.COMPS:ARP:1,2014-04-01T22:24:00Z,28.4330,-82.6670,21.23,1111122 
COMPS,ioos:station:USF.COMPS:ARP:1,2014-04-01T22:30:00Z,28.4330,-82.6670,21.13,1111122 
COMPS,ioos:station:USF.COMPS:ARP:1,2014-04-01T22:36:00Z,28.4330,-82.6670,21.08,1111122 
COMPS,ioos:station:USF.COMPS:ARP:1,2014-04-01T22:42:00Z,28.4330,-82.6670,21.11,1111122 
COMPS,ioos:station:USF.COMPS:ARP:1,2014-04-01T22:48:00Z,28.4330,-82.6670,21.16,1111122 
COMPS,ioos:station:USF.COMPS:ARP:1,2014-04-01T22:54:00Z,28.4330,-82.6670,21.17,1111122 
COMPS,ioos:station:USF.COMPS:ARP:1,2014-04-01T23:00:00Z,28.4330,-82.6670,21.13,1111122 
COMPS,ioos:station:USF.COMPS:ARP:1,2014-04-01T23:06:00Z,28.4330,-82.6670,21.31,1111122 
COMPS,ioos:station:USF.COMPS:ARP:1,2014-04-01T23:12:00Z,28.4330,-82.6670,21.25,1111122 
COMPS,ioos:station:USF.COMPS:ARP:1,2014-04-01T23:18:00Z,28.4330,-82.6670,21.19,1111122 
COMPS,ioos:station:USF.COMPS:ARP:1,2014-04-01T23:24:00Z,28.4330,-82.6670,21.18,1111122 
COMPS,ioos:station:USF.COMPS:ARP:1,2014-04-01T23:30:00Z,28.4330,-82.6670,21.06,1111122 
COMPS,ioos:station:USF.COMPS:ARP:1,2014-04-01T23:36:00Z,28.4330,-82.6670,20.84,1111122 
COMPS,ioos:station:USF.COMPS:ARP:1,2014-04-01T23:42:00Z,28.4330,-82.6670,20.66,1111122 
COMPS,ioos:station:USF.COMPS:ARP:1,2014-04-01T23:48:00Z,28.4330,-82.6670,20.58,1111122 
COMPS,ioos:station:USF.COMPS:ARP:1,2014-04-01T23:54:00Z,28.4330,-82.6670,20.37,1111122 
COMPS,ioos:station:USF.COMPS:ARP:1,2014-04-02T00:00:00Z,28.4330,-82.6670,20.11,1111122 
COMPS,ioos:station:USF.COMPS:ARP:1,2014-04-02T00:06:00Z,28.4330,-82.6670,19.64,1111122 
COMPS,ioos:station:USF.COMPS:ARP:1,2014-04-02T00:12:00Z,28.4330,-82.6670,19.06,1111122 
COMPS,ioos:station:USF.COMPS:ARP:1,2014-04-02T00:18:00Z,28.4330,-82.6670,18.54,1111122 
COMPS,ioos:station:USF.COMPS:ARP:1,2014-04-02T00:24:00Z,28.4330,-82.6670,18.14,1111122 
COMPS,ioos:station:USF.COMPS:ARP:1,2014-04-02T00:30:00Z,28.4330,-82.6670,17.89,1111122 
COMPS,ioos:station:USF.COMPS:ARP:1,2014-04-02T00:36:00Z,28.4330,-82.6670,17.64,1111122 
COMPS,ioos:station:USF.COMPS:ARP:1,2014-04-02T00:42:00Z,28.4330,-82.6670,17.4,1111122 
COMPS,ioos:station:USF.COMPS:ARP:1,2014-04-02T00:48:00Z,28.4330,-82.6670,17.17,1111122 
COMPS,ioos:station:USF.COMPS:ARP:1,2014-04-02T00:54:00Z,28.4330,-82.6670,17.19,1111122 
COMPS,ioos:station:USF.COMPS:ARP:1,2014-04-02T01:00:00Z,28.4330,-82.6670,17.17,1111122 
COMPS,ioos:station:USF.COMPS:ARP:1,2014-04-02T01:06:00Z,28.4330,-82.6670,17.27,1111122 
COMPS,ioos:station:USF.COMPS:ARP:1,2014-04-02T01:12:00Z,28.4330,-82.6670,17.32,1111122 
COMPS,ioos:station:USF.COMPS:ARP:1,2014-04-02T01:18:00Z,28.4330,-82.6670,17.32,1111122 
COMPS,ioos:station:USF.COMPS:ARP:1,2014-04-02T01:24:00Z,28.4330,-82.6670,17.47,1111122 
COMPS,ioos:station:USF.COMPS:ARP:1,2014-04-02T01:30:00Z,28.4330,-82.6670,17.5,1111122 
COMPS,ioos:station:USF.COMPS:ARP:1,2014-04-02T01:36:00Z,28.4330,-82.6670,17.64,1111122 
COMPS,ioos:station:USF.COMPS:ARP:1,2014-04-02T01:42:00Z,28.4330,-82.6670,17.65,1111122 
COMPS,ioos:station:USF.COMPS:ARP:1,2014-04-02T01:48:00Z,28.4330,-82.6670,17.57,1111122 
COMPS,ioos:station:USF.COMPS:ARP:1,2014-04-02T01:54:00Z,28.4330,-82.6670,17.32,1111122 
COMPS,ioos:station:USF.COMPS:ARP:1,2014-04-02T02:00:00Z,28.4330,-82.6670,17.12,1111122 
COMPS,ioos:station:USF.COMPS:ARP:1,2014-04-02T02:06:00Z,28.4330,-82.6670,16.94,1111122 
COMPS,ioos:station:USF.COMPS:ARP:1,2014-04-02T02:12:00Z,28.4330,-82.6670,16.77,1111122 
COMPS,ioos:station:USF.COMPS:ARP:1,2014-04-02T02:18:00Z,28.4330,-82.6670,16.65,1111122 
COMPS,ioos:station:USF.COMPS:ARP:1,2014-04-02T02:24:00Z,28.4330,-82.6670,16.52,1111122 
COMPS,ioos:station:USF.COMPS:ARP:1,2014-04-02T02:30:00Z,28.4330,-82.6670,16.41,1111122 
COMPS,ioos:station:USF.COMPS:ARP:1,2014-04-02T02:36:00Z,28.4330,-82.6670,16.28,1111122 
COMPS,ioos:station:USF.COMPS:ARP:1,2014-04-02T02:42:00Z,28.4330,-82.6670,16.17,1111122 
COMPS,ioos:station:USF.COMPS:ARP:1,2014-04-02T02:48:00Z,28.4330,-82.6670,15.88,1111122 
COMPS,ioos:station:USF.COMPS:ARP:1,2014-04-02T02:54:00Z,28.4330,-82.6670,15.73,1111122 
COMPS,ioos:station:USF.COMPS:ARP:1,2014-04-02T03:00:00Z,28.4330,-82.6670,15.67,1111122 
COMPS,ioos:station:USF.COMPS:ARP:1,2014-04-02T03:06:00Z,28.4330,-82.6670,15.55,1111122 